Voltar ao catálogo

SL-14 DEB

AtivoPO
NORAD 45332·DEBRIS·🇷🇺 Russia

Lançado Aug 15, 1991 de Plesetsk Cosmodrome

Loading…

Próximas Passagens (próximas 24 horas)

TLE

AtualizadoSource: Space-Track

Época: Sep 12, 2026, 23:35 UTC

1 45332U 91056BW  26255.98331276  .00000552  00000-0  14417-2 0  9998
2 45332  82.5485  89.4575 0106872 341.7595  17.9703 13.13235728312993

Acompanhe SL-14 DEB em tempo real com AllMySat

Download on the App Store